Showing default

DASH 1, 589

Orbit data source: Space-Track

DASH 1, 589 is a payload satellite owned by USAF SSD (US) in LEO that was launched on Thu, 09 May 1963 UTC via an ATLAS AGENA B launch vehicle from the Air Force Western Test Range (AFWTR). Payload-class satellites include a variety of spacecraft equipped with specific instruments for various scientific and technological missions. These include communications satellites like Starlink; space stations such as the ISS; scientific satellites like the Hubble; Earth observation satellites from companies like Planet Labs, Umbra, and HawkEye 360; GPS; miniature CubeSats for education and research; and military/defense satellites.

Loading next visibility...
Identifier
589, 1963-014D
Orbit
LEO
Country
Flag of USUS
Related business
Manufacturer
MITLL?
Mission
Spacecraft
Bus & Motor
DASH, Unknown motor
Mass
1 kg wet, 1 kg dry
Launch date (UTC)
1963-05-09 (63 years ago)
Launch vehicle
ATLAS AGENA B
Launch site
Air Force Western Test Range (AFWTR)
Object type
Payload
Rocket body
Debris
Shape & HBR
Unknown
Radar Cross Section
Large (>1 m²)

Expand to show TLE details & history
Last TLE update: 13 hours ago

TLE from 13 hours ago
0 DASH 1
1   589U 63014D   26123.63442485  .00000035  00000-0  14894-1 0  9991
2   589  87.3567 194.7728 0054031 354.8329   5.1963  8.65624393989966
Epoch: 2026-05-03T15:13Z
TLE epoch observation values (Epoch: 2026-05-03T15:13:34.307Z)
Latitude
-0.00003°
Longitude
104.8447°
Altitude
3,589.697 km
Speed
6.341 km/s
True Right ascension
12h 59m 05s
True Declination
0° 00' 00"
Sunlit
Object was in full shadow at epoch
Visualization orbit readout
Latitude
Unknown
Longitude
Unknown
Altitude
Unknown
Speed
Unknown
Apparent Right ascension
Unknown
Apparent Declination
Unknown
Sunlit
N/A
Visualization observer readout
Local Sidereal Time
12:05:13
Azimuth
Unknown
Elevation
Unknown
Doppler factor
Unknown
Orbital elements
Apogee altitude
3,693.375 km
Perigee altitude
3,585.125 km
Semi-major axis
10,017.387 km
Eccentricity
0.0054
Inclination
87.3567°
RAAN
194.7728°
Arg. of periapsis
354.8329°
True anomaly
5.25275°
Mean anomaly
5.1963°
Eccentric anomaly
5.22449°
Mean motion
2.16477 °/min
Orbital period
166.3 mins
BSTAR
0.014894
Loading maneuver chart data...
Computing Atmospheric mass density...

Documentation

Showing up to 5 results
|